Date String (YYYY-MM-DD hh:mm:ss) UTC,Instrument flags,Ambient pressure (hPa),Sample flow (lpm),Bypass flow (lpm),Sample temperature (°C),Ambient temperature (°C),ASC tube jacket temperature (°C),LED temperature (°C),Box temperature (°C),Sample RH (%),Span deviation,Mass concentration (μg/m³),Mass concentration (μg/m³),Mass concentration (μg/m³)
DateTimeUTC,F1_M11,P_M11,Q1_M11,Q2_M11,T1_M11,T2_M11,T3_M11,T4_M11,T5_M11,U1_M11,ZSPAN_M11,X2_M11,X0_M11,X1_M11
2023-02-10 15:00:00,,0832.7,5.03,0.00,21.9,21.2,00.0,30.7,23.6,06.9,0000.0,0002.46,0003.40,0002.13
2023-02-10 15:01:00,,0832.7,4.97,0.00,21.9,20.8,00.0,30.7,23.5,07.0,0000.0,0002.46,0003.40,0002.13
2023-02-10 15:02:00,,0832.7,4.98,0.00,21.8,20.4,00.0,30.7,23.4,07.1,0000.0,0002.48,0003.75,0002.14
2023-02-10 15:03:00,,0832.7,5.01,0.00,21.8,20.1,00.0,30.7,23.3,07.0,0000.0,0002.52,0004.09,0002.14
2023-02-10 15:04:00,,0832.7,4.99,0.00,21.7,19.9,00.0,30.7,23.2,07.2,0000.0,0002.59,0004.71,0002.16
2023-02-10 15:05:00,,0832.7,4.97,0.00,21.7,19.7,00.0,30.7,23.2,07.1,0000.0,0002.64,0005.36,0002.17
2023-02-10 15:06:00,,0832.6,5.02,0.00,21.7,19.9,00.0,30.6,23.1,07.1,0000.0,0002.67,0005.66,0002.20
2023-02-10 15:07:00,,0832.7,5.03,0.00,21.7,21.4,00.0,30.6,23.5,07.1,0000.0,0002.69,0005.71,0002.21
2023-02-10 15:08:00,,0832.7,4.99,0.00,21.9,22.5,00.0,30.6,23.8,07.0,0000.0,0002.72,0005.66,0002.23
2023-02-10 15:09:00,,0832.6,5.01,0.00,21.9,22.0,00.0,30.7,23.8,07.1,0000.0,0002.73,0006.97,0002.24
2023-02-10 15:10:00,,0832.6,5.02,0.00,21.9,21.3,00.0,30.7,23.6,07.1,0000.0,0002.75,0007.38,0002.25
2023-02-10 15:11:00,,0832.6,4.98,0.00,21.9,20.7,00.0,30.7,23.4,07.1,0000.0,0002.83,0007.48,0002.26
2023-02-10 15:12:00,,0832.6,5.01,0.00,21.8,20.3,00.0,30.7,23.3,07.1,0000.0,0002.84,0007.55,0002.28
2023-02-10 15:13:00,,0832.6,5.00,0.00,21.8,20.0,00.0,30.7,23.2,07.1,0000.0,0002.84,0007.50,0002.29
2023-02-10 15:14:00,,0832.6,5.02,0.00,21.7,19.8,00.0,30.7,23.2,07.1,0000.0,0002.80,0007.19,0002.31
2023-02-10 15:15:00,,0832.7,5.02,0.00,21.7,19.6,00.0,30.7,23.1,07.2,0000.0,0002.78,0007.57,0002.32
2023-02-10 15:16:00,,0832.6,4.99,0.00,21.6,19.7,00.0,30.6,23.1,07.3,0000.0,0002.76,0007.28,0002.32
2023-02-10 15:17:00,,0832.6,5.08,0.00,21.7,21.2,00.0,30.6,23.4,07.2,0000.0,0002.81,0007.14,0002.33
2023-02-10 15:18:00,,0832.6,5.03,0.00,21.8,22.5,00.0,30.6,23.7,07.2,0000.0,0002.85,0007.26,0002.34
2023-02-10 15:19:00,,0832.7,4.97,0.00,21.9,22.1,00.0,30.7,23.7,07.3,0000.0,0002.86,0007.29,0002.35
2023-02-10 15:20:00,,0832.7,5.06,0.00,21.9,21.4,00.0,30.7,23.5,07.2,0000.0,0002.86,0006.52,0002.36
2023-02-10 15:21:00,,0832.7,4.96,0.00,21.8,20.8,00.0,30.7,23.4,07.3,0000.0,0002.94,0005.81,0002.40
2023-02-10 15:22:00,,0832.7,5.01,0.00,21.8,20.4,00.0,30.7,23.3,07.4,0000.0,0002.92,0005.74,0002.43
2023-02-10 15:23:00,,0832.6,4.99,0.00,21.8,20.1,00.0,30.7,23.2,07.4,0000.0,0002.95,0005.74,0002.49
2023-02-10 15:24:00,,0832.6,4.97,0.00,21.7,19.8,00.0,30.7,23.1,07.4,0000.0,0003.01,0005.51,0002.57
2023-02-10 15:25:00,,0832.7,5.03,0.00,21.7,19.5,00.0,30.7,23.1,07.6,0000.0,0003.09,0005.64,0002.62
2023-02-10 15:26:00,,0832.7,4.99,0.00,21.6,19.5,00.0,30.6,23.1,07.4,0000.0,0003.13,0005.08,0002.67
2023-02-10 15:27:00,,0832.7,5.02,0.00,21.7,21.0,00.0,30.6,23.4,07.5,0000.0,0003.16,0004.43,0002.74
2023-02-10 15:28:00,,0832.7,4.98,0.00,21.8,22.5,00.0,30.6,23.7,07.5,0000.0,0003.22,0004.59,0002.84
2023-02-10 15:29:00,,0832.7,4.99,0.00,21.9,22.4,00.0,30.6,23.8,07.7,0000.0,0003.27,0005.14,0002.97
2023-02-10 15:30:00,,0832.7,5.02,0.00,21.9,21.7,00.0,30.7,23.7,07.6,0000.0,0003.34,0006.08,0003.10
2023-02-10 15:31:00,,0832.7,5.03,0.00,21.9,21.1,00.0,30.7,23.5,07.7,0000.8,0003.43,0006.35,0003.18
2023-02-10 15:32:00,,0832.7,5.11,0.00,21.9,20.7,00.0,30.7,23.4,07.9,0002.5,0003.48,0006.58,0003.23
2023-02-10 15:33:00,,0832.7,5.00,0.00,21.8,20.5,00.0,30.7,23.4,07.8,0003.4,0003.49,0006.59,0003.26
2023-02-10 15:34:00,,0832.7,5.04,0.00,21.8,20.2,00.0,30.7,23.3,07.7,0002.2,0003.54,0006.75,0003.29
2023-02-10 15:35:00,,0832.7,5.01,0.00,21.8,20.1,00.0,30.7,23.3,07.9,0004.2,0003.56,0006.86,0003.30
2023-02-10 15:36:00,,0832.7,4.95,0.00,21.7,20.0,00.0,30.7,23.3,07.9,0004.5,0003.58,0007.02,0003.31
2023-02-10 15:37:00,,0832.7,4.97,0.00,21.7,19.9,00.0,30.7,23.2,07.9,0004.4,0003.61,0007.73,0003.33
2023-02-10 15:38:00,,0832.7,4.99,0.00,21.7,19.8,00.0,30.6,23.2,07.9,0004.6,0003.63,0007.80,0003.34
2023-02-10 15:39:00,,0832.8,4.98,0.00,21.6,19.8,00.0,30.6,23.2,07.6,0004.2,0003.60,0007.80,0003.30
2023-02-10 15:40:00,,0832.7,4.98,0.00,21.6,20.0,00.0,30.6,23.2,07.4,0003.0,0003.54,0007.44,0003.24
2023-02-10 15:41:00,,0832.8,4.98,0.00,21.7,21.5,00.0,30.6,23.5,07.5,0000.0,0003.48,0006.63,0003.18
2023-02-10 15:42:00,,0832.8,5.01,0.00,21.9,22.8,00.0,30.6,23.9,07.5,0000.0,0003.45,0006.74,0003.13
2023-02-10 15:43:00,,0832.8,4.98,0.00,22.0,22.5,00.0,30.7,23.9,07.2,0000.0,0003.40,0006.61,0003.05
2023-02-10 15:44:00,,0832.8,5.03,0.00,22.0,21.9,00.0,30.7,23.8,07.2,0000.0,0003.37,0006.57,0002.97
2023-02-10 15:45:00,,0832.8,5.01,0.00,22.0,21.4,00.0,30.7,23.7,07.4,0000.0,0003.33,0006.57,0002.91
2023-02-10 15:46:00,,0832.8,4.99,0.00,22.0,21.1,00.0,30.7,23.6,07.2,0000.0,0003.29,0006.82,0002.82
2023-02-10 15:47:00,,0832.8,4.98,0.00,22.0,20.8,00.0,30.7,23.6,07.3,0000.0,0003.26,0006.62,0002.74
2023-02-10 15:48:00,,0832.8,5.02,0.00,22.0,20.7,00.0,30.7,23.6,07.4,0000.0,0003.22,0005.67,0002.67
2023-02-10 15:49:00,,0832.8,5.00,0.00,21.9,20.6,00.0,30.7,23.6,07.8,0000.0,0003.20,0006.25,0002.62
2023-02-10 15:50:00,,0832.8,5.00,0.00,21.9,20.5,00.0,30.8,23.6,07.8,0000.0,0003.20,0006.53,0002.61
2023-02-10 15:51:00,,0832.8,5.02,0.00,21.9,20.5,00.0,30.8,23.5,07.9,0000.0,0003.22,0006.62,0002.61
2023-02-10 15:52:00,,0832.8,4.92,0.00,21.9,20.5,00.0,30.7,23.6,07.9,0000.0,0003.19,0006.46,0002.59
2023-02-10 15:53:00,,0832.8,5.05,0.00,21.9,20.5,00.0,30.7,23.6,07.5,0000.0,0003.15,0006.23,0002.54
2023-02-10 15:54:00,,0832.8,5.08,0.00,21.9,20.5,00.0,30.7,23.6,07.3,0000.0,0003.11,0006.00,0002.50
2023-02-10 15:55:00,,0832.8,5.01,0.00,21.9,20.5,00.0,30.8,23.5,07.6,0000.0,0003.06,0005.79,0002.48
2023-02-10 15:56:00,,0832.8,4.98,0.00,21.9,20.4,00.0,30.7,23.5,07.5,0000.0,0002.99,0005.52,0002.45
2023-02-10 15:57:00,,0832.8,4.98,0.00,21.9,20.4,00.0,30.7,23.5,07.5,0000.0,0002.93,0004.99,0002.43
2023-02-10 15:58:00,,0832.7,4.96,0.00,21.9,20.4,00.0,30.7,23.5,07.6,0000.0,0002.89,0004.93,0002.41
2023-02-10 15:59:00,,0832.7,4.97,0.00,21.9,20.5,00.0,30.7,23.6,07.2,0000.0,0002.82,0004.77,0002.37
